Location: Albany
(35.0000°S, 118.0000°E)
Time: 13:04:09
(UTC-05:00)

JAS-1B - Visible Passes

Search period start: 19 February 2018 00:00
Search period end: 01 March 2018 00:00
Orbit: 911 x 1744 km, 99.1° (Epoch: 18 February)

Date Brightness Start Highest point End Pass type
(mag) Time Alt. Az. Time Alt. Az. Time Alt. Az.
19 Feb 9.7 09:05:42 10° SE 09:07:07 13° ESE 09:07:07 13° ESE visible
19 Feb 8.4 10:53:17 10° SSE 10:59:22 54° SSE 10:59:22 54° SSE visible
19 Feb 9.4 12:45:43 10° SSW 12:51:37 21° WSW 12:51:37 21° WSW visible
20 Feb 9.5 09:23:24 10° SE 09:26:24 18° ESE 09:26:24 18° ESE visible
20 Feb 8.4 11:12:19 10° S 11:18:38 55° S 11:18:38 55° S visible
20 Feb 9.7 13:05:44 10° SSW 13:10:20 16° WSW 13:10:54 16° WSW visible
21 Feb 9.3 09:41:38 10° SE 09:45:41 25° ESE 09:45:41 25° ESE visible
21 Feb 8.6 11:31:28 10° S 11:37:56 50° SSW 11:37:56 50° SSW visible
21 Feb 9.9 13:26:47 10° SW 13:28:57 11° SW 13:30:11 11° WSW visible
22 Feb 9.1 10:00:09 10° SSE 10:04:58 32° SE 10:04:58 32° SE visible
22 Feb 8.8 11:50:43 10° S 11:57:13 42° SW 11:57:13 42° SW visible
23 Feb 8.8 10:18:52 10° SSE 10:24:14 39° SE 10:24:14 39° SE visible
23 Feb 9.0 12:10:05 10° S 12:16:30 33° SW 12:16:30 33° SW visible
24 Feb 8.7 10:37:45 10° SSE 10:43:31 47° SSE 10:43:31 47° SSE visible
24 Feb 9.3 12:29:37 10° SSW 12:35:46 26° SW 12:35:46 26° SW visible
25 Feb 9.7 09:08:29 10° SE 09:10:33 15° ESE 09:10:33 15° ESE visible
25 Feb 8.6 10:56:43 10° SSE 11:02:48 51° S 11:02:48 51° S visible
25 Feb 9.6 12:49:22 10° SSW 12:55:03 20° WSW 12:55:03 20° WSW visible
26 Feb 9.5 09:26:30 10° SE 09:29:50 20° ESE 09:29:50 20° ESE visible
26 Feb 8.7 11:15:49 10° S 11:22:05 50° SSW 11:22:05 50° SSW visible
26 Feb 9.8 13:09:31 10° SSW 13:13:55 15° WSW 13:14:20 15° WSW visible
27 Feb 9.3 09:44:53 10° SSE 09:49:06 26° SE 09:49:06 26° SE visible
27 Feb 8.8 11:35:01 10° S 11:41:22 45° SSW 11:41:22 45° SSW visible
27 Feb 10.0 13:31:22 10° SW 13:32:28 10° SW 13:33:33 10° WSW visible
28 Feb 9.1 10:03:31 10° SSE 10:08:23 33° SE 10:08:23 33° SE visible
28 Feb 9.0 11:54:19 10° S 12:00:38 37° SW 12:00:38 37° SW visible
